DW3201 Weather Reports


time (UTC)temp
F
wind
direction
speed
knots
gust
knots
rain 1hr
in
rain 24hr
in
rain mn
in
humidity
%
barometer
mb
20260504011553 63 239 0.0 1.7 0.00 0.00 0.00 52 1003.6
20260504010101 64 242 0.0 1.7 0.00 0.00 0.00 46 1003.6
20260504004556 65 248 0.9 3.5 0.00 0.00 0.00 45 1003.5
20260504003104 66 256 2.6 4.3 0.00 0.00 0.00 42 1003.5
20260504001602 67 248 3.5 6.1 0.00 0.00 0.00 41 1003.3
20260504000104 67 255 4.3 9.6 0.00 0.00 0.00 40 1003.4
20260503234551 68 233 4.3 8.7 0.00 0.00 0.00 40 1003.4
20260503233055 68 235 3.5 15.6 0.00 0.00 0.00 40 1003.5
20260503231551 68 288 4.3 12.2 0.00 0.00 0.00 40 1003.6
20260503230110 68 242 7.0 11.3 0.00 0.00 0.00 40 1003.6
20260503224554 68 250 6.1 14.8 0.00 0.00 0.00 39 1003.8
20260503223109 67 235 6.1 14.8 0.00 0.00 0.00 40 1003.9
20260503221555 67 256 8.7 13.9 0.00 0.00 0.00 40 1004.1
20260503220054 67 243 7.0 16.5 0.00 0.00 0.00 41 1004.1
20260503214601 67 226 8.7 14.8 0.00 0.00 0.00 41 1004.0
20260503213056 66 243 6.1 20.0 0.00 0.00 0.00 42 1004.5
20260503211602 66 288 7.0 17.4 0.00 0.00 0.00 42 1004.5
20260503210052 65 270 7.0 13.9 0.00 0.00 0.00 43 1004.7
20260503204555 65 191 10.4 16.5 0.00 0.00 0.00 41 1005.0
20260503203057 65 261 9.6 14.8 0.00 0.00 0.00 41 1005.1
20260503201555 63 235 6.1 16.5 0.00 0.00 0.00 48 1005.3
20260503200057 63 292 11.3 18.2 0.00 0.00 0.00 49 1005.7
20260503194619 63 235 8.7 19.1 0.00 0.00 0.00 49 1006.0
20260503193052 62 249 9.6 20.0 0.00 0.00 0.00 48 1006.4
20260503191557 62 246 10.4 17.4 0.00 0.00 0.00 45 1006.4
20260503190052 63 218 8.7 22.6 0.00 0.00 0.00 45 1006.5
20260503184552 63 232 10.4 20.0 0.00 0.00 0.00 43 1006.6
20260503183104 63 132 7.8 20.0 0.00 0.00 0.00 44 1006.8
20260503181605 62 242 10.4 20.9 0.00 0.00 0.00 43 1006.9
20260503180054 61 274 10.4 17.4 0.00 0.00 0.00 45 1006.9
20260503174606 60 242 8.7 20.9 0.00 0.00 0.00 49 1007.4
20260503173105 59 162 7.8 15.6 0.00 0.00 0.00 52 1007.6
20260503171554 58 242 11.3 23.5 0.00 0.00 0.00 54 1008.0
20260503170103 56 238 9.6 17.4 0.00 0.00 0.00 56 1008.2
20260503120112 49 262 7.8 13.0 0.00 0.01 0.00 54 1010.7
20260503081555 47 255 3.5 7.8 0.00 0.01 0.00 54 1011.9
20260503071551 47 240 3.5 9.6 0.00 0.01 0.00 53 1012.0
20260503054551 47 247 3.5 7.8 0.00 0.01 0.00 53 1012.8
20260503053053 47 249 3.5 7.0 0.00 0.01 0.00 53 1012.9
20260503051555 47 245 4.3 8.7 0.00 0.01 0.00 52 1013.0
20260503050058 47 239 3.5 6.1 0.00 0.01 0.00 53 1013.0
20260503044611 48 273 3.5 7.8 0.00 0.01 0.01 52 1013.1
20260503043058 48 259 4.3 7.0 0.00 0.01 0.01 51 1013.2
20260503041610 48 260 3.5 6.1 0.00 0.01 0.01 52 1013.3
20260503040057 48 232 2.6 7.0 0.00 0.01 0.01 51 1013.3
20260503034555 48 200 3.5 7.0 0.00 0.01 0.01 51 1013.5
20260503033114 48 260 2.6 6.1 0.00 0.01 0.01 52 1013.5
20260503031553 49 259 3.5 9.6 0.00 0.01 0.01 51 1013.6
20260503030100 49 243 2.6 6.1 0.00 0.01 0.01 51 1013.8
20260503024601 50 236 2.6 4.3 0.00 0.01 0.01 51 1013.9
20260503023056 50 252 2.6 5.2 0.00 0.01 0.01 49 1013.9
20260503021557 50 243 2.6 4.3 0.00 0.01 0.01 50 1013.9
20260503020056 51 237 1.7 5.2 0.00 0.01 0.01 47 1013.7
20260503014552 51 232 1.7 3.5 0.00 0.01 0.01 47 1013.6
20260503013049 52 228 2.6 3.5 0.00 0.01 0.01 45 1013.5